Commit Graph
100 Commits
Author SHA1 Message Date
Phuntsok Drak-pa 7ce5841ce4 Changed GPLv3 license to AGPLv3 for code. 2019-09-09 20:57:44 +02:00
Phuntsok Drak-pa fa313a0e82 Fixed licence 2019-09-09 20:36:55 +02:00
Phuntsok Drak-pa dc65a3ba85 updated licence for this repo 2019-09-09 20:35:05 +02:00
Phuntsok Drak-pa 28bf979ede phonology updated and fixed, lots of new allophonic rules 2019-09-09 19:18:02 +02:00
Phuntsok Drak-pa 8431aba4fb Added lots of lore about Eittland 2019-09-09 19:17:03 +02:00
Phuntsok Drak-pa 227b091550 Updated pie-chart method for Mattér 2019-09-09 19:16:03 +02:00
Phuntsok Drak-pa c7f3ab81de Religion pie-chart for Eittlandic 2019-09-09 19:08:12 +02:00
Phuntsok Drak-pa dc119b237f updated gitignore file 2019-09-08 14:03:10 +02:00
Phuntsok Drak-pa 05aabd6fd3 added some dictionary entries 2019-09-07 16:28:03 +02:00
Phuntsok Drak-pa 82959882c3 updated phonology of Eittlandic, added front mutation and tone 2019-09-07 16:27:26 +02:00
Phuntsok Drak-pa 3d7f8ed0bf began dictionary, more info on vowels and consonants 2019-09-06 16:51:50 +02:00
Phuntsok Drak-pa 0b353674b7 Wonderdraft’s map of Eittland 2019-09-06 16:51:20 +02:00
Phuntsok Drak-pa 6e48a500f5 Back to PNG files 2019-09-06 16:51:08 +02:00
Phuntsok Drak-pa 011fa818bb HTML header fix 2019-09-06 16:50:54 +02:00
Phuntsok Drak-pa d5e50691b3 small CSS fix for `pre' blocks 2019-09-06 16:50:21 +02:00
Phuntsok Drak-pa 2254a1e0bd Better HTML headers and navigation 2019-09-03 16:49:52 +02:00
Phuntsok Drak-pa 3567ae5d5b removed unused code
The LaTeX conlang class has been added to my dotspacemacs instead
2019-09-03 16:36:41 +02:00
Phuntsok Drak-pa d8dc7b7649 fixed name conflict in svg trees between files 2019-09-03 16:36:13 +02:00
Phuntsok Drak-pa b3bc44201c updated gitignore 2019-09-03 16:35:33 +02:00
Phuntsok Drak-pa 7e12d3d892 new style overhaul, better navigation options 2019-09-03 15:06:53 +02:00
Phuntsok Drak-pa d0fd6d99d7 moved files into more organized folders 2019-09-03 15:05:29 +02:00
Phuntsok Drak-pa 2b34d804e5 updated gitignore 2019-09-03 04:59:25 +02:00
Phuntsok Drak-pa aa2d311e36 svg from two commits ago 2019-09-03 04:58:50 +02:00
Phuntsok Drak-pa ae4b0dfb7a Tãso fix 2019-09-03 04:58:26 +02:00
Phuntsok Drak-pa eaaddf3c4a Improved yet again visual appearances 2019-09-03 04:58:10 +02:00
Phuntsok Drak-pa b1ef08db63 mainly fixed the PDF layout 2019-09-03 04:13:42 +02:00
Phuntsok Drak-pa 33dd081747 Simplified titles style and javascript 2019-09-03 03:35:33 +02:00
Phuntsok Drak-pa 556d774a5e Better and simplified arrows when rolling/unrolling content 2019-09-03 02:24:06 +02:00
Phuntsok Drak-pa ddbbf4bb72 Simplified javascript 2019-09-03 02:04:57 +02:00
Phuntsok Drak-pa 155b4e12ef fixed title color 2019-09-03 02:04:11 +02:00
Phuntsok Drak-pa d7d0df3fc6 Eittlandic maps \o/ 2019-08-29 13:53:31 +02:00
Phuntsok Drak-pa 61aa5b32a2 Move files for eittlandic in dedicated folder
I will be doing the same for the rest of the languages that use images
2019-08-29 13:53:04 +02:00
Phuntsok Drak-pa 15765cc10d Some reorganization of the main javascript file. 2019-08-29 13:51:20 +02:00
Phuntsok Drak-pa 8104f7b00c formatting 2019-08-26 16:59:28 +02:00
Phuntsok Drak-pa 0cdcc9f02b Better titles 2019-08-26 16:58:30 +02:00
Phuntsok Drak-pa 9590408c7c fixes for themes and header links 2019-08-25 05:20:06 +02:00
Phuntsok Drak-pa bdf3f66324 Merge branch 'new-style' 2019-08-25 05:02:01 +02:00
Phuntsok Drak-pa 8b7de1042a merged .gitignore from new-style branch 2019-08-25 04:59:48 +02:00
Phuntsok Drak-pa c9110f8438 ignore .tern-port file 2019-08-25 04:58:54 +02:00
Phuntsok Drak-pa fff0d4bfed Now light and dark themes available, remember theme with cookies 2019-08-25 04:48:03 +02:00
Phuntsok Drak-pa 6a993740f5 Better link to the Mattér page from the Eittlandic page 2019-08-25 03:15:17 +02:00
Phuntsok Drak-pa 096c4c5b89 syntax fix 2019-08-25 01:35:42 +02:00
Phuntsok Drak-pa 92e6fbd67a code commenting 2019-08-25 01:35:23 +02:00
Phuntsok Drak-pa 303d24bbb4 Accidently deleted this file 2019-08-25 01:31:57 +02:00
Phuntsok Drak-pa a1e73e9d39 New style, ver 0.1 2019-08-25 01:28:24 +02:00
Phuntsok Drak-pa 80640a98a5 HTML fix, more info on alphabet 2019-08-25 01:06:28 +02:00
Phuntsok Drak-pa f5818b6b32 Added lots of information on consonants 2019-08-24 18:54:46 +02:00
Phuntsok Drak-pa 5378671375 Some more work on vowels, added details on runes 2019-08-23 13:30:52 +02:00
Phuntsok Drak-pa 62acb23a11 orthography 2019-08-23 13:30:33 +02:00
Phuntsok Drak-pa b42d6e61b0 image update 2019-08-22 20:32:09 +02:00
Phuntsok Drak-pa 6773e1d58f fixed orthography of Eittlandic, ordered vowel presentation 2019-08-22 20:31:52 +02:00
Phuntsok Drak-pa 2f4101b041 fixed linking issues 2019-08-22 20:31:36 +02:00
Phuntsok Drak-pa 719909b958 fixed issue with runic font not appearing on some devices 2019-08-22 20:30:35 +02:00
Phuntsok Drak-pa aa6621bd29 Renamed file to correct language name 2019-08-21 20:31:04 +02:00
Phuntsok Drak-pa 2d522a27c3 added information in introduction, vowels 2019-08-21 20:30:48 +02:00
Phuntsok Drak-pa fc2a0e43d9 Added rewrite of the Ňyqy grammar 2019-08-21 14:59:39 +02:00
Phuntsok Drak-pa c448a08cb9 Renamed Einnland to Eittland 2019-08-21 14:59:24 +02:00
Phuntsok Drak-pa 5a8420b208 updated image 2019-08-19 16:13:12 +02:00
Phuntsok Drak-pa b36b757aea consonant feature tree now sideways for PDF 2019-08-19 16:12:57 +02:00
Phuntsok Drak-pa 8797188178 added beginning of list of monarchs of Einnland 2019-08-19 16:12:30 +02:00
Phuntsok Drak-pa 5471f0aa12 changed Scheme code to Elisp code 2019-08-14 02:55:02 +02:00
Phuntsok Drak-pa 14b4ca999e added spacemacs logo to readme 2019-08-13 16:42:00 +02:00
Phuntsok Drak-pa 45d9276bb9 some more Einnlandic phonology 2019-08-13 16:36:48 +02:00
Phuntsok Drak-pa e323a3e7b5 even simpler macro call 2019-08-13 16:36:35 +02:00
Phuntsok Drak-pa 863ae1da73 removed timestamp from introduction paragraph 2019-08-13 03:00:58 +02:00
Phuntsok Drak-pa 0ef2b2ea99 Added basic phonology to Einnlandic, added rune macro 2019-08-13 02:13:20 +02:00
Phuntsok Drak-pa 66790e464b even easier to use and better rune macro 2019-08-13 01:51:16 +02:00
Phuntsok Drak-pa 462dc4f31d fixed link to pdfs in index 2019-08-13 00:45:38 +02:00
Phuntsok Drak-pa 9087d487df better rune macro for Mattér 2019-08-13 00:27:41 +02:00
Phuntsok Drak-pa f311ddf990 Updated introduction, added basics for vowels 2019-08-10 20:02:59 +02:00
Phuntsok Drak-pa 4cc4d85128 formatting 2019-08-10 19:35:38 +02:00
Phuntsok Drak-pa e1d072af76 deleted now useless CNAME file 2019-08-10 18:43:28 +02:00
Phuntsok Drak-pa 0f7a56bf9f reorganization of the Einnlandic page 2019-08-10 18:13:19 +02:00
Phuntsok Drak-pa 89a60f50a2 changed the name of the vertical macro to `v' 2019-08-08 15:37:32 +02:00
Phuntsok Drak-pa c367991d69 better template 2019-08-06 15:54:38 +02:00
Phuntsok Drak-pa d8ee252b48 renamed clean script, better pdf margin 2019-08-06 15:54:24 +02:00
Phuntsok Drak-pa b3ecd4e724 Release 0.1.0 2019-08-03 18:45:03 +02:00
Phuntsok Drak-pa 6a613cb5c4 added draft for the Tãso proto-lang 2019-07-20 12:34:45 +02:00
Phuntsok Drak-pa bb70e66513 nah, let’s go back to article 2019-07-19 14:28:06 +02:00
Phuntsok Drak-pa 19b6ce0239 fixed header 2019-07-19 14:27:49 +02:00
Phuntsok Drak-pa 35875ad099 updated nyqy, added syntax, updated tree function 2019-07-17 14:49:52 +02:00
Phuntsok Drak-pa 95251bf04c numbers, removed dialects 2019-07-11 17:30:50 +02:00
Phuntsok Drak-pa d829cf3879 Updated function for feature tree generation, switched to svg 2019-07-11 17:30:24 +02:00
Phuntsok Drak-pa 0e7e334dab better layout 2019-07-11 05:39:00 +02:00
Phuntsok Drak-pa 563b041474 fix headers 2019-07-11 05:26:57 +02:00
Phuntsok Drak-pa 23591d55be no more confirmation for running code 2019-07-11 05:18:27 +02:00
Phuntsok Drak-pa fed8b1a758 tables now centered 2019-07-11 05:14:05 +02:00
Phuntsok Drak-pa 1c72af21ff updated headers for relative links to HTML headers 2019-07-11 05:12:23 +02:00
Phuntsok Drak-pa 4044a9bfb9 better tables, ʌ changed to ɤ, fixed phonotactics comment on sonorants 2019-07-11 04:16:34 +02:00
Phuntsok Drak-pa 97a2b6c5c2 Added some more phonological rules for Ňyqy 2019-07-11 03:22:49 +02:00
Phuntsok Drak-pa ea67bcf0a3 fixes 2019-07-11 03:22:20 +02:00
Phuntsok Drak-pa e354a12580 fixed clean script 2019-07-05 22:33:38 +02:00
Phuntsok Drak-pa 271d5df2ce Reorganized repo
Now the source files only will be on the main branch, whereas the html and pdf
files will be on the gh-pages branch.
2019-07-05 21:49:56 +02:00
Phuntsok Drak-pa ed1f6cd030 some more information on phonology for Ňyqy
Worked on allophony and phonotactics
2019-07-01 12:28:08 +02:00
Phuntsok Drak-pa 64777ee0bf added french version of file from previous commits 2019-07-01 10:29:06 +02:00
Phuntsok Drak-pa bae575c246 renamed file from last commit 2019-07-01 10:25:48 +02:00
Phuntsok Drak-pa 065612cc70 added feature tree for verbs of nyqy 2019-07-01 10:13:18 +02:00
Phuntsok Drak-pa b338cec4dd updated French name of Einnlanda, updated title for Einlanda files 2019-06-30 11:22:17 +02:00
Phuntsok Drak-pa 15d2bcb144 Added Ňyqy language, removed junk in Einnlanda files 2019-06-30 11:12:07 +02:00
Phuntsok Drak-pa 45cb91226f Changed consonants orientation in Mattér 2019-06-29 15:42:19 +02:00